Location: Alto Pass Reservoir
(37.5801°N, 89.3084°W)
Time: 11:41:12
(UTC+00:00)

NEOSSAT - Pass Details

Date: 02 October 2022
Orbit: 767 x 784 km, 98.4° (Epoch: 26 November)

Event Time Altitude Azimuth Distance (km) Brightness Sun altitude
Rises 01:07:28 0° 8° (N) 3,280 ? -18.1°
Reaches altitude 10° 01:09:49 10° 4° (N) 2,349 ? -18.5°
Maximum altitude 01:14:54 58° 287° (WNW) 911 ? -19.5°
Drops below altitude 10° 01:19:56 10° 209° (SSW) 2,333 ? -20.5°
Sets 01:22:16 0° 205° (SSW) 3,256 ? -21.0°
